When you browse on this site, cookies collect data to enhance your experience and personalize the content and advertising you see.
Visit our Privacy Policy to learn more. By continuing to use the site, you agree to this use of cookies and data.
  • In Deutschland
  • Länderverzeichnis
  • Für 7 Tage
  • Wassertemperatur
  • Satellitenkarten
  • Wetterkarte
  • Widgets
  • user-avatar
    Anmelden

    Stündliche Wetter Kolno

    Heute, 23 Juli, Dienstag

    Zeit Temperatur Niederschläge Wind Luftdruck Luftfeuchtigkeit
    00:00 +18°C° 0 mm 1 m/S 755 mmHg 77%
    01:00 +16°C° 0 mm 1 m/S 755 mmHg 81%
    02:00 +16°C° 0 mm 1 m/S 755 mmHg 81%
    03:00 +16°C° 0 mm 1 m/S 754 mmHg 81%
    04:00 +15°C° 0 mm 1 m/S 754 mmHg 80%
    05:00 +16°C° 0 mm 1 m/S 754 mmHg 77%
    06:00 +17°C° 0 mm 2 m/S 754 mmHg 74%
    07:00 +18°C° 0 mm 2 m/S 754 mmHg 70%
    08:00 +18°C° 0 mm 2 m/S 754 mmHg 70%
    09:00 +18°C° 0 mm 3 m/S 754 mmHg 70%
    10:00 +18°C° 0 mm 3 m/S 754 mmHg 69%
    11:00 +18°C° 0 mm 3 m/S 754 mmHg 70%
    12:00 +19°C° 0 mm 3 m/S 754 mmHg 71%
    13:00 +19°C° 0 mm 3 m/S 754 mmHg 72%
    14:00 +20°C° 0 mm 4 m/S 754 mmHg 70%
    15:00 +20°C° 0 mm 4 m/S 754 mmHg 69%
    16:00 +21°C° 0 mm 4 m/S 754 mmHg 68%
    17:00 +20°C° 0 mm 3 m/S 753 mmHg 72%
    18:00 +19°C° 0 mm 3 m/S 753 mmHg 77%
    19:00 +18°C° 0 mm 3 m/S 753 mmHg 82%
    20:00 +17°C° 0 mm 2 m/S 753 mmHg 85%
    21:00 +17°C° 0 mm 2 m/S 753 mmHg 89%
    22:00 +16°C° 0 mm 2 m/S 754 mmHg 93%
    23:00 +15°C° 0 mm 2 m/S 754 mmHg 93%

    Morgen, 24 Juli, Mittwoch

    Zeit Temperatur Niederschläge Wind Luftdruck Luftfeuchtigkeit
    00:00 +15°C° 0 mm 1 m/S 753 mmHg 93%
    01:00 +15°C° 0 mm 1 m/S 753 mmHg 94%
    02:00 +15°C° 0 mm 1 m/S 753 mmHg 94%
    03:00 +15°C° 0 mm 1 m/S 753 mmHg 93%
    04:00 +15°C° 0 mm 1 m/S 753 mmHg 93%
    05:00 +16°C° 0 mm 1 m/S 753 mmHg 87%
    06:00 +19°C° 0 mm 1 m/S 753 mmHg 82%
    07:00 +20°C° 0 mm 1 m/S 754 mmHg 76%
    08:00 +21°C° 0 mm 1 m/S 754 mmHg 70%
    09:00 +23°C° 0 mm 2 m/S 754 mmHg 64%
    10:00 +24°C° 0 mm 2 m/S 754 mmHg 59%
    11:00 +25°C° 0 mm 2 m/S 754 mmHg 54%
    12:00 +26°C° 0 mm 2 m/S 753 mmHg 50%
    13:00 +27°C° 0 mm 2 m/S 753 mmHg 45%
    14:00 +27°C° 0 mm 2 m/S 753 mmHg 45%
    15:00 +27°C° 0 mm 3 m/S 753 mmHg 45%
    16:00 +27°C° 0 mm 3 m/S 753 mmHg 45%
    17:00 +26°C° 0 mm 2 m/S 753 mmHg 51%
    18:00 +25°C° 0 mm 2 m/S 753 mmHg 58%
    19:00 +23°C° 0 mm 1 m/S 753 mmHg 64%
    20:00 +22°C° 0 mm 1 m/S 753 mmHg 68%
    21:00 +21°C° 0 mm 1 m/S 754 mmHg 72%
    22:00 +20°C° 0 mm 1 m/S 754 mmHg 75%
    23:00 +20°C° 0 mm 1 m/S 754 mmHg 78%

    übermorgen, 25 Juli, Donnerstag

    Zeit Temperatur Niederschläge Wind Luftdruck Luftfeuchtigkeit
    00:00 +17°C° 0 mm 0 m/S 754 mmHg 81%
    01:00 +17°C° 0 mm 0 m/S 754 mmHg 84%
    02:00 +16°C° 0 mm 0 m/S 754 mmHg 85%
    03:00 +16°C° 0 mm 0 m/S 754 mmHg 87%
    04:00 +18°C° 0 mm 1 m/S 754 mmHg 88%
    05:00 +20°C° 0 mm 1 m/S 754 mmHg 83%
    06:00 +21°C° 0 mm 1 m/S 754 mmHg 78%
    07:00 +23°C° 0 mm 1 m/S 754 mmHg 72%
    08:00 +24°C° 0.1 mm 1 m/S 754 mmHg 67%
    09:00 +25°C° 0.1 mm 2 m/S 754 mmHg 61%
    10:00 +27°C° 0.1 mm 2 m/S 754 mmHg 56%
    11:00 +27°C° 0.1 mm 2 m/S 754 mmHg 53%
    12:00 +28°C° 0.1 mm 2 m/S 753 mmHg 50%
    13:00 +28°C° 0.1 mm 2 m/S 753 mmHg 48%
    14:00 +28°C° 0 mm 3 m/S 753 mmHg 47%
    15:00 +28°C° 0 mm 3 m/S 753 mmHg 47%
    16:00 +28°C° 0 mm 4 m/S 752 mmHg 46%
    17:00 +27°C° 0 mm 4 m/S 752 mmHg 55%
    18:00 +25°C° 0 mm 4 m/S 752 mmHg 63%
    19:00 +22°C° 0 mm 3 m/S 752 mmHg 72%
    20:00 +21°C° 0 mm 3 m/S 753 mmHg 75%
    21:00 +20°C° 0 mm 3 m/S 753 mmHg 78%
    22:00 +18°C° 0 mm 3 m/S 753 mmHg 81%
    23:00 +18°C° 0 mm 3 m/S 753 mmHg 84%

    26 Juli, Freitag

    Zeit Temperatur Niederschläge Wind Luftdruck Luftfeuchtigkeit
    00:00 +17°C° 0 mm 3 m/S 753 mmHg 88%
    01:00 +16°C° 0 mm 3 m/S 752 mmHg 91%
    02:00 +16°C° 0 mm 3 m/S 752 mmHg 92%
    03:00 +16°C° 0 mm 3 m/S 752 mmHg 93%
    04:00 +16°C° 0 mm 3 m/S 752 mmHg 94%
    05:00 +17°C° 0 mm 3 m/S 752 mmHg 88%
    06:00 +18°C° 0 mm 3 m/S 752 mmHg 82%
    07:00 +19°C° 0 mm 4 m/S 752 mmHg 76%
    08:00 +20°C° 0.1 mm 4 m/S 752 mmHg 72%
    09:00 +21°C° 0.1 mm 4 m/S 752 mmHg 69%
    10:00 +22°C° 0.1 mm 5 m/S 752 mmHg 65%
    11:00 +22°C° 0 mm 5 m/S 752 mmHg 63%
    12:00 +23°C° 0 mm 5 m/S 752 mmHg 61%
    13:00 +23°C° 0 mm 5 m/S 752 mmHg 59%
    14:00 +23°C° 0 mm 5 m/S 752 mmHg 60%
    15:00 +23°C° 0 mm 5 m/S 751 mmHg 61%
    16:00 +25°C° 0 mm 5 m/S 751 mmHg 62%
    17:00 +23°C° 0 mm 4 m/S 751 mmHg 68%
    18:00 +21°C° 0 mm 4 m/S 751 mmHg 74%
    19:00 +20°C° 0 mm 3 m/S 751 mmHg 79%
    20:00 +20°C° 0 mm 3 m/S 752 mmHg 83%
    21:00 +19°C° 0 mm 3 m/S 752 mmHg 87%
    22:00 +18°C° 0 mm 3 m/S 752 mmHg 91%
    23:00 +18°C° 0 mm 3 m/S 752 mmHg 90%

    27 Juli, Samstag

    Zeit Temperatur Niederschläge Wind Luftdruck Luftfeuchtigkeit
    00:00 +18°C° 0 mm 3 m/S 752 mmHg 90%
    01:00 +18°C° 0 mm 3 m/S 752 mmHg 90%
    02:00 +18°C° 0 mm 3 m/S 752 mmHg 92%
    03:00 +18°C° 0 mm 3 m/S 752 mmHg 93%
    04:00 +17°C° 0 mm 3 m/S 752 mmHg 95%
    05:00 +19°C° 0 mm 3 m/S 752 mmHg 90%
    06:00 +20°C° 0 mm 3 m/S 752 mmHg 84%
    07:00 +21°C° 0 mm 4 m/S 752 mmHg 79%
    08:00 +23°C° 0 mm 4 m/S 752 mmHg 71%
    09:00 +26°C° 0 mm 4 m/S 752 mmHg 64%
    10:00 +27°C° 0 mm 5 m/S 752 mmHg 56%
    11:00 +28°C° 0 mm 5 m/S 752 mmHg 54%
    12:00 +29°C° 0 mm 5 m/S 752 mmHg 52%
    13:00 +30°C° 0 mm 5 m/S 752 mmHg 50%
    14:00 +30°C° 0 mm 5 m/S 752 mmHg 50%
    15:00 +30°C° 0 mm 5 m/S 751 mmHg 49%
    16:00 +30°C° 0 mm 5 m/S 751 mmHg 49%
    17:00 +28°C° 0 mm 4 m/S 751 mmHg 55%
    18:00 +27°C° 0 mm 3 m/S 751 mmHg 61%
    19:00 +26°C° 0 mm 3 m/S 751 mmHg 66%
    20:00 +25°C° 0 mm 3 m/S 752 mmHg 72%
    21:00 +22°C° 0 mm 3 m/S 752 mmHg 77%
    22:00 +21°C° 0 mm 2 m/S 752 mmHg 82%
    23:00 +21°C° 0 mm 2 m/S 752 mmHg 85%

    28 Juli, Sonntag

    Zeit Temperatur Niederschläge Wind Luftdruck Luftfeuchtigkeit
    00:00 +20°C° 0 mm 2 m/S 752 mmHg 87%
    01:00 +20°C° 0 mm 2 m/S 752 mmHg 89%
    02:00 +20°C° 0 mm 2 m/S 752 mmHg 90%
    03:00 +19°C° 0 mm 2 m/S 752 mmHg 91%
    04:00 +19°C° 0 mm 2 m/S 752 mmHg 92%
    05:00 +21°C° 0 mm 2 m/S 752 mmHg 85%
    06:00 +23°C° 0 mm 2 m/S 752 mmHg 79%
    07:00 +25°C° 0 mm 2 m/S 752 mmHg 72%
    08:00 +26°C° 0 mm 3 m/S 752 mmHg 65%
    09:00 +28°C° 0 mm 3 m/S 752 mmHg 58%
    10:00 +30°C° 0 mm 3 m/S 752 mmHg 50%
    11:00 +30°C° 0 mm 3 m/S 752 mmHg 50%
    12:00 +30°C° 0 mm 3 m/S 752 mmHg 49%
    13:00 +30°C° 0 mm 3 m/S 752 mmHg 49%
    14:00 +30°C° 0 mm 3 m/S 752 mmHg 48%
    15:00 +31°C° 0 mm 3 m/S 752 mmHg 47%
    16:00 +31°C° 0 mm 3 m/S 751 mmHg 46%
    17:00 +29°C° 0 mm 3 m/S 751 mmHg 52%
    18:00 +28°C° 0 mm 2 m/S 751 mmHg 58%
    19:00 +27°C° 0 mm 2 m/S 751 mmHg 63%
    20:00 +26°C° 0 mm 2 m/S 752 mmHg 67%
    21:00 +24°C° 0 mm 2 m/S 752 mmHg 70%
    22:00 +23°C° 0 mm 2 m/S 752 mmHg 74%
    23:00 +23°C° 0 mm 2 m/S 752 mmHg 78%
    Mehr zeigen